STARLINK-37491, 69166

Orbit data source: Space-Track

STARLINK-37491, 69166 is a payload satellite owned by SpaceX/Seattle (US) in LEO that was launched on Thu, 21 May 2026 UTC via an FALCON 9 launch vehicle from the Air Force Eastern Test Range (AFETR). Payload-class satellites include a variety of spacecraft equipped with specific instruments for various scientific and technological missions. These include communications satellites like Starlink; space stations such as the ISS; scientific satellites like the Hubble; Earth observation satellites from companies like Planet Labs, Umbra, and HawkEye 360; GPS; miniature CubeSats for education and research; and military/defense satellites.

Loading next visibility...
Identifier
69166, 2026-111U
Orbit
LEO
Country
Flag of USUS
Related business
Manufacturer
SpaceX/Seattle
Mission
Operational spacecraft
Bus & Motor
STARLINK V2MO, Unknown motor
Mass
575 kg wet, ~530 kg dry
Launch date (UTC)
2026-05-21 (1 month ago)
Launch vehicle
FALCON 9
Launch site
Air Force Eastern Test Range (AFETR)
Object type
Payload
Rocket body
Debris
Shape & HBR
Unknown shape, 14.5 m
Radar Cross Section
Large (>1 m²)

Expand to show TLE details & history
Last TLE update: 12 hours ago

TLE from 12 hours ago
0 STARLINK-37491
1 69166U 26111U   26171.41668980  .00059638  00000-0  10733-2 0  9995
2 69166  53.1594 136.5246 0001072  80.2517  38.7046 15.49277986  6076
Epoch: 2026-06-20T10:00Z
TLE epoch observation values (Epoch: 2026-06-20T10:00:01.998Z)
Latitude
44.58514°
Longitude
-149.36495°
Altitude
422.854 km
Speed
7.664 km/s
True Right ascension
17h 57m 05s
True Declination
44° 24' 17"
Sunlit
Object was in full shadow at epoch
Visualization orbit readout
Latitude
Unknown
Longitude
Unknown
Altitude
Unknown
Speed
Unknown
Apparent Right ascension
Unknown
Apparent Declination
Unknown
Sunlit
N/A
Visualization observer readout
Local Sidereal Time
08:33:04
Azimuth
Unknown
Elevation
Unknown
Doppler factor
Unknown
Orbital elements
Apogee altitude
419.824 km
Perigee altitude
418.367 km
Semi-major axis
6,797.233 km
Eccentricity
0.00011
Inclination
53.1594°
RAAN
136.5246°
Arg. of periapsis
80.2517°
True anomaly
38.71228°
Mean anomaly
38.7046°
Eccentric anomaly
38.70844°
Mean motion
3.87298 °/min
Orbital period
92.95 mins
BSTAR
0.0010733
Loading maneuver chart data...
Computing Atmospheric mass density...
Loading historical data...
Loading historical data...
Loading historical data...
Loading historical data...
Loading historical data...
Loading historical data...
Loading historical data...

Documentation

Showing up to 5 results
|